Time,TemperatureF,DewpointF,PressureIn,WindDirection,WindDirectionDegrees,WindSpeedMPH,WindSpeedGustMPH,Humidity,HourlyPrecipIn,Conditions,Clouds,dailyrainin,SoftwareType,DateUTC
2018-01-19 00:04:00,24.3,5.0,30.17,WSW,242,10.1,14.0,43,0.00,,,0.00,meteobridge,2018-01-19 05:04:00,
2018-01-19 00:09:00,24.3,5.0,30.17,SW,222,8.1,15.0,43,0.00,,,0.00,meteobridge,2018-01-19 05:09:00,
2018-01-19 00:14:00,24.3,5.0,30.17,SW,221,6.9,13.0,43,0.00,,,0.00,meteobridge,2018-01-19 05:14:00,
2018-01-19 00:19:00,24.3,5.0,30.17,WSW,237,8.9,14.0,43,0.00,,,0.00,meteobridge,2018-01-19 05:19:00,
2018-01-19 00:24:00,24.3,5.0,30.17,SW,234,6.0,14.0,43,0.00,,,0.00,meteobridge,2018-01-19 05:24:00,
2018-01-19 00:29:00,24.3,5.0,30.17,WSW,249,8.1,15.0,43,0.00,,,0.00,meteobridge,2018-01-19 05:29:00,
2018-01-19 00:34:00,24.1,5.4,30.17,WSW,242,6.9,14.0,44,0.00,,,0.00,meteobridge,2018-01-19 05:34:00,
2018-01-19 00:39:00,24.1,5.4,30.16,WSW,242,8.1,12.0,44,0.00,,,0.00,meteobridge,2018-01-19 05:39:00,
2018-01-19 00:44:00,23.9,5.2,30.16,SW,232,10.1,15.0,44,0.00,,,0.00,meteobridge,2018-01-19 05:44:00,
2018-01-19 00:49:00,23.9,5.2,30.17,WSW,250,8.9,14.0,44,0.00,,,0.00,meteobridge,2018-01-19 05:49:00,
2018-01-19 00:54:00,23.9,5.2,30.17,SW,236,8.9,18.0,44,0.00,,,0.00,meteobridge,2018-01-19 05:54:00,
2018-01-19 00:59:00,23.9,5.2,30.17,SW,233,8.1,14.0,44,0.00,,,0.00,meteobridge,2018-01-19 05:59:00,
2018-01-19 01:05:00,23.7,5.0,30.17,SW,222,8.1,16.0,44,0.00,,,0.00,meteobridge,2018-01-19 06:05:00,
2018-01-19 01:10:00,23.7,5.0,30.16,SW,227,8.9,16.0,44,0.00,,,0.00,meteobridge,2018-01-19 06:10:00,
2018-01-19 01:15:00,23.5,4.8,30.17,WSW,256,6.9,12.0,44,0.00,,,0.00,meteobridge,2018-01-19 06:15:00,
2018-01-19 01:20:00,23.5,4.8,30.16,SW,227,6.0,13.0,44,0.00,,,0.00,meteobridge,2018-01-19 06:20:00,
2018-01-19 01:25:00,23.4,4.6,30.16,SW,227,8.9,12.0,44,0.00,,,0.00,meteobridge,2018-01-19 06:25:00,
2018-01-19 01:30:00,23.4,4.6,30.16,WSW,242,13.0,14.0,44,0.00,,,0.00,meteobridge,2018-01-19 06:30:00,
2018-01-19 01:35:00,23.2,5.0,30.16,WSW,238,4.9,13.0,45,0.00,,,0.00,meteobridge,2018-01-19 06:35:00,
2018-01-19 01:40:00,23.0,4.8,30.16,WSW,244,6.0,9.0,45,0.00,,,0.00,meteobridge,2018-01-19 06:40:00,
2018-01-19 01:45:00,22.8,4.6,30.16,WSW,238,6.0,9.0,45,0.00,,,0.00,meteobridge,2018-01-19 06:45:00,
2018-01-19 01:50:00,22.6,4.5,30.16,SW,229,8.9,11.0,45,0.00,,,0.00,meteobridge,2018-01-19 06:50:00,
2018-01-19 01:55:00,22.6,4.5,30.16,WSW,238,6.0,10.0,45,0.00,,,0.00,meteobridge,2018-01-19 06:55:00,
2018-01-19 02:00:00,22.5,4.3,30.16,SW,223,4.9,11.0,45,0.00,,,0.00,meteobridge,2018-01-19 07:00:00,
2018-01-19 02:05:00,22.5,4.3,30.16,SW,233,6.9,11.0,45,0.00,,,0.00,meteobridge,2018-01-19 07:05:00,
2018-01-19 02:10:00,22.5,4.3,30.16,SW,227,8.1,10.0,45,0.00,,,0.00,meteobridge,2018-01-19 07:10:00,
2018-01-19 02:15:00,22.5,4.3,30.16,SW,218,6.9,10.0,45,0.00,,,0.00,meteobridge,2018-01-19 07:15:00,
2018-01-19 02:20:00,22.3,4.1,30.16,SW,224,8.9,10.0,45,0.00,,,0.00,meteobridge,2018-01-19 07:20:00,
2018-01-19 02:25:00,22.1,3.9,30.16,SW,220,4.0,8.0,45,0.00,,,0.00,meteobridge,2018-01-19 07:25:00,
2018-01-19 02:30:00,21.9,3.7,30.16,SW,223,6.9,9.0,45,0.00,,,0.00,meteobridge,2018-01-19 07:30:00,
2018-01-19 02:35:00,21.9,3.7,30.16,SW,220,6.9,10.0,45,0.00,,,0.00,meteobridge,2018-01-19 07:35:00,
2018-01-19 02:40:00,21.9,3.7,30.16,WSW,252,8.1,10.0,45,0.00,,,0.00,meteobridge,2018-01-19 07:40:00,
2018-01-19 02:45:00,21.7,3.7,30.16,SW,234,8.9,10.0,45,0.00,,,0.00,meteobridge,2018-01-19 07:45:00,
2018-01-19 02:50:00,21.7,3.7,30.16,SW,227,8.1,9.0,45,0.00,,,0.00,meteobridge,2018-01-19 07:50:00,
2018-01-19 02:55:00,21.7,3.7,30.16,SW,215,8.1,10.0,45,0.00,,,0.00,meteobridge,2018-01-19 07:55:00,
2018-01-19 03:00:00,21.7,3.7,30.16,SW,233,6.9,11.0,45,0.00,,,0.00,meteobridge,2018-01-19 08:00:00,
2018-01-19 03:05:00,21.7,3.7,30.16,SW,225,4.9,10.0,45,0.00,,,0.00,meteobridge,2018-01-19 08:05:00,
2018-01-19 03:11:00,21.7,3.7,30.16,SW,233,8.1,12.0,45,0.00,,,0.00,meteobridge,2018-01-19 08:11:00,
2018-01-19 03:16:00,21.9,3.4,30.17,SSW,213,4.9,9.0,44,0.00,,,0.00,meteobridge,2018-01-19 08:16:00,
2018-01-19 03:21:00,21.9,3.4,30.16,SW,224,8.1,9.0,44,0.00,,,0.00,meteobridge,2018-01-19 08:21:00,
2018-01-19 03:26:00,21.9,3.4,30.16,WSW,242,6.0,10.0,44,0.00,,,0.00,meteobridge,2018-01-19 08:26:00,
2018-01-19 03:31:00,22.1,3.6,30.16,WSW,237,8.1,11.0,44,0.00,,,0.00,meteobridge,2018-01-19 08:31:00,
2018-01-19 03:36:00,21.9,3.4,30.16,SSW,211,8.1,11.0,44,0.00,,,0.00,meteobridge,2018-01-19 08:36:00,
2018-01-19 03:41:00,21.9,3.4,30.15,SW,221,6.9,10.0,44,0.00,,,0.00,meteobridge,2018-01-19 08:41:00,
2018-01-19 03:46:00,21.9,3.4,30.15,WSW,241,8.9,12.0,44,0.00,,,0.00,meteobridge,2018-01-19 08:46:00,
2018-01-19 03:51:00,21.7,3.2,30.15,SW,227,6.9,10.0,44,0.00,,,0.00,meteobridge,2018-01-19 08:51:00,
2018-01-19 03:56:00,21.7,3.2,30.15,WSW,237,6.9,12.0,44,0.00,,,0.00,meteobridge,2018-01-19 08:56:00,
2018-01-19 04:01:00,21.7,3.2,30.15,SSW,211,8.1,10.0,44,0.00,,,0.00,meteobridge,2018-01-19 09:01:00,
2018-01-19 04:07:00,21.7,3.2,30.15,SW,229,8.1,10.0,44,0.00,,,0.00,meteobridge,2018-01-19 09:07:00,
2018-01-19 04:12:00,21.7,3.2,30.15,SW,229,6.0,13.0,44,0.00,,,0.00,meteobridge,2018-01-19 09:12:00,
2018-01-19 04:17:00,21.7,3.2,30.15,WSW,238,6.9,11.0,44,0.00,,,0.00,meteobridge,2018-01-19 09:17:00,
2018-01-19 04:22:00,21.7,3.2,30.15,SW,223,4.9,10.0,44,0.00,,,0.00,meteobridge,2018-01-19 09:22:00,
2018-01-19 04:27:00,21.7,3.2,30.15,SW,214,10.1,13.0,44,0.00,,,0.00,meteobridge,2018-01-19 09:27:00,
2018-01-19 04:32:00,21.7,3.2,30.15,SW,221,8.9,10.0,44,0.00,,,0.00,meteobridge,2018-01-19 09:32:00,
2018-01-19 04:37:00,21.7,3.2,30.15,SW,231,6.9,12.0,44,0.00,,,0.00,meteobridge,2018-01-19 09:37:00,
2018-01-19 04:42:00,21.7,3.2,30.15,SW,223,4.9,12.0,44,0.00,,,0.00,meteobridge,2018-01-19 09:42:00,
2018-01-19 04:47:00,21.6,3.0,30.15,SW,223,6.9,11.0,44,0.00,,,0.00,meteobridge,2018-01-19 09:47:00,
2018-01-19 04:52:00,21.6,3.0,30.15,SW,221,4.9,10.0,44,0.00,,,0.00,meteobridge,2018-01-19 09:52:00,
2018-01-19 04:57:00,21.6,3.0,30.14,SW,218,8.1,13.0,44,0.00,,,0.00,meteobridge,2018-01-19 09:57:00,
2018-01-19 05:02:00,21.7,3.2,30.14,SW,229,8.1,11.0,44,0.00,,,0.00,meteobridge,2018-01-19 10:02:00,
2018-01-19 05:07:00,21.7,3.2,30.15,WSW,242,4.9,11.0,44,0.00,,,0.00,meteobridge,2018-01-19 10:07:00,
2018-01-19 05:12:00,21.6,3.0,30.14,SSW,203,4.9,12.0,44,0.00,,,0.00,meteobridge,2018-01-19 10:12:00,
2018-01-19 05:17:00,21.6,3.0,30.14,SSW,208,6.9,11.0,44,0.00,,,0.00,meteobridge,2018-01-19 10:17:00,
2018-01-19 05:22:00,21.6,3.0,30.14,SW,215,6.9,10.0,44,0.00,,,0.00,meteobridge,2018-01-19 10:22:00,
2018-01-19 05:27:00,21.6,3.0,30.14,SSW,211,6.0,11.0,44,0.00,,,0.00,meteobridge,2018-01-19 10:27:00,
2018-01-19 05:32:00,21.6,3.0,30.14,SW,219,6.9,12.0,44,0.00,,,0.00,meteobridge,2018-01-19 10:32:00,
2018-01-19 05:37:00,21.6,3.0,30.14,SW,219,6.0,13.0,44,0.00,,,0.00,meteobridge,2018-01-19 10:37:00,
2018-01-19 05:42:00,21.4,2.8,30.14,SW,236,6.0,11.0,44,0.00,,,0.00,meteobridge,2018-01-19 10:42:00,
2018-01-19 05:47:00,21.4,2.8,30.14,SSW,207,8.9,12.0,44,0.00,,,0.00,meteobridge,2018-01-19 10:47:00,
2018-01-19 05:53:00,21.4,2.8,30.14,SSE,165,8.9,12.0,44,0.00,,,0.00,meteobridge,2018-01-19 10:53:00,
2018-01-19 05:58:00,21.6,2.5,30.14,SW,236,8.9,12.0,43,0.00,,,0.00,meteobridge,2018-01-19 10:58:00,
2018-01-19 06:03:00,21.6,2.5,30.13,WSW,239,8.9,12.0,43,0.00,,,0.00,meteobridge,2018-01-19 11:03:00,
2018-01-19 06:08:00,21.6,2.5,30.13,SSW,211,8.9,13.0,43,0.00,,,0.00,meteobridge,2018-01-19 11:08:00,
2018-01-19 06:13:00,21.6,2.5,30.13,SW,232,8.1,13.0,43,0.00,,,0.00,meteobridge,2018-01-19 11:13:00,
2018-01-19 06:18:00,21.7,2.7,30.14,SW,214,8.1,13.0,43,0.00,,,0.00,meteobridge,2018-01-19 11:18:00,
2018-01-19 06:23:00,21.7,2.7,30.14,SW,233,8.9,13.0,43,0.00,,,0.00,meteobridge,2018-01-19 11:23:00,
2018-01-19 06:28:00,21.7,2.7,30.14,SW,230,6.9,13.0,43,0.00,,,0.00,meteobridge,2018-01-19 11:28:00,
2018-01-19 06:33:00,21.7,2.7,30.14,SW,215,11.0,11.0,43,0.00,,,0.00,meteobridge,2018-01-19 11:33:00,
2018-01-19 06:38:00,21.9,2.8,30.13,SSW,205,12.1,12.1,43,0.00,,,0.00,meteobridge,2018-01-19 11:38:00,
2018-01-19 06:43:00,21.9,2.8,30.13,SSW,210,6.0,13.0,43,0.00,,,0.00,meteobridge,2018-01-19 11:43:00,
2018-01-19 06:48:00,21.9,2.3,30.13,SW,226,8.9,18.0,42,0.00,,,0.00,meteobridge,2018-01-19 11:48:00,
2018-01-19 06:53:00,21.9,2.3,30.13,SW,227,8.1,13.0,42,0.00,,,0.00,meteobridge,2018-01-19 11:53:00,
2018-01-19 06:58:00,21.9,2.8,30.13,SW,227,6.9,13.0,43,0.00,,,0.00,meteobridge,2018-01-19 11:58:00,
2018-01-19 07:03:00,21.9,2.3,30.13,SW,226,8.1,13.0,42,0.00,,,0.00,meteobridge,2018-01-19 12:03:00,
2018-01-19 07:08:00,21.9,2.3,30.13,SW,236,8.1,13.0,42,0.00,,,0.00,meteobridge,2018-01-19 12:08:00,
2018-01-19 07:13:00,22.1,2.5,30.13,SW,231,6.0,16.0,42,0.00,,,0.00,meteobridge,2018-01-19 12:13:00,
2018-01-19 07:18:00,22.3,2.7,30.14,SW,227,11.0,14.0,42,0.00,,,0.00,meteobridge,2018-01-19 12:18:00,
2018-01-19 07:23:00,22.5,2.8,30.14,SW,219,6.9,13.0,42,0.00,,,0.00,meteobridge,2018-01-19 12:23:00,
2018-01-19 07:28:00,22.5,2.8,30.14,South,188,6.0,13.0,42,0.00,,,0.00,meteobridge,2018-01-19 12:28:00,
2018-01-19 07:33:00,22.5,2.8,30.14,SW,230,8.9,13.0,42,0.00,,,0.00,meteobridge,2018-01-19 12:33:00,
2018-01-19 07:38:00,22.5,2.8,30.13,SSW,211,8.9,10.0,42,0.00,,,0.00,meteobridge,2018-01-19 12:38:00,
2018-01-19 07:43:00,22.5,2.8,30.14,SSW,209,10.1,13.0,42,0.00,,,0.00,meteobridge,2018-01-19 12:43:00,
2018-01-19 07:48:00,22.5,2.8,30.14,SW,229,8.9,12.0,42,0.00,,,0.00,meteobridge,2018-01-19 12:48:00,
2018-01-19 07:54:00,22.5,2.8,30.13,SW,225,8.1,12.0,42,0.00,,,0.00,meteobridge,2018-01-19 12:54:00,
2018-01-19 07:59:00,22.5,2.8,30.14,SW,228,4.9,12.0,42,0.00,,,0.00,meteobridge,2018-01-19 12:59:00,
2018-01-19 08:04:00,22.5,2.8,30.14,SW,220,6.9,11.0,42,0.00,,,0.00,meteobridge,2018-01-19 13:04:00,
2018-01-19 08:09:00,22.5,2.8,30.14,WSW,238,8.1,10.0,42,0.00,,,0.00,meteobridge,2018-01-19 13:09:00,
2018-01-19 08:14:00,22.5,2.8,30.14,WSW,239,8.1,9.0,42,0.00,,,0.00,meteobridge,2018-01-19 13:14:00,